PAA2 VHHX-RJAA

Flight info

Callsign PAA2
Flight time N/A
Altitude 39000
Route ENVAR M750 BILLY RUTAS
Aircraft B742/H-SDFHIRWXY/L

Departure

Time 2026-04-30 20:02
Airport Hong Kong International Airport Kai Tak (VHHX)

Arrival

Time N/A
Airport Narita International Airport (RJAA)
Time Latitude Longitude Altitude Speed Heading
2026-04-30 18:40 22.32694 114.19397 35 ft 0 kts 314°
2026-04-30 19:52 22.32688 114.19405 35 ft 2 kts 309°
2026-04-30 19:52 22.32679 114.19418 35 ft 2 kts 298°
2026-04-30 19:53 22.32673 114.19432 35 ft 2 kts 289°
2026-04-30 19:53 22.32669 114.19447 35 ft 2 kts 281°
2026-04-30 19:53 22.32667 114.19463 35 ft 2 kts 271°
2026-04-30 19:53 22.32668 114.19479 35 ft 2 kts 262°
2026-04-30 19:54 22.32671 114.19495 35 ft 2 kts 253°
2026-04-30 19:54 22.32676 114.19510 35 ft 2 kts 244°
2026-04-30 19:54 22.32683 114.19524 35 ft 2 kts 236°
2026-04-30 19:54 22.32692 114.19537 35 ft 2 kts 226°
2026-04-30 19:55 22.32703 114.19548 35 ft 2 kts 221°
2026-04-30 19:55 22.32715 114.19559 35 ft 2 kts 222°
2026-04-30 19:55 22.32721 114.19566 35 ft 0 kts 223°
2026-04-30 19:59 22.32685 114.19531 35 ft 11 kts 221°
2026-04-30 19:59 22.32629 114.19472 35 ft 11 kts 225°
2026-04-30 19:59 22.32529 114.19371 35 ft 8 kts 223°
2026-04-30 20:00 22.32473 114.19329 35 ft 11 kts 182°
2026-04-30 20:00 22.32413 114.19376 35 ft 10 kts 131°
2026-04-30 20:00 22.32410 114.19380 35 ft 0 kts 130°
2026-04-30 20:01 22.32237 114.19577 35 ft 67 kts 134°
2026-04-30 20:01 22.31768 114.20100 35 ft 125 kts 133°
2026-04-30 20:01 22.31044 114.20908 69 ft 170 kts 132°
2026-04-30 20:02 22.29362 114.22664 1216 ft 166 kts 131°
2026-04-30 20:02 22.28571 114.23531 1637 ft 162 kts 132°
2026-04-30 20:03 22.26846 114.25320 2024 ft 184 kts 133°
2026-04-30 20:03 22.25892 114.26327 2200 ft 199 kts 133°
2026-04-30 20:03 22.24874 114.27409 2380 ft 214 kts 133°
2026-04-30 20:03 22.23774 114.28587 2555 ft 231 kts 132°
2026-04-30 20:04 22.22586 114.29866 2735 ft 252 kts 133°
2026-04-30 20:04 22.21312 114.31258 3152 ft 263 kts 133°
2026-04-30 20:04 22.20036 114.32668 3837 ft 263 kts 133°
2026-04-30 20:05 22.17457 114.35599 4939 ft 274 kts 133°
2026-04-30 20:05 22.16169 114.37114 5467 ft 279 kts 133°
2026-04-30 20:05 22.13566 114.40263 6574 ft 286 kts 133°
2026-04-30 20:06 22.12216 114.41927 7090 ft 291 kts 133°
2026-04-30 20:06 22.10824 114.43654 7656 ft 294 kts 133°
2026-04-30 20:06 22.09427 114.45390 8201 ft 299 kts 133°
2026-04-30 20:06 22.08021 114.47146 8739 ft 302 kts 132°
2026-04-30 20:07 22.06594 114.48935 9279 ft 306 kts 133°
2026-04-30 20:07 22.05167 114.50729 9809 ft 309 kts 132°
2026-04-30 20:07 22.03433 114.55173 10311 ft 339 kts 94°
2026-04-30 20:08 22.03429 114.57841 10476 ft 357 kts 87°
2026-04-30 20:08 22.03551 114.60737 10652 ft 376 kts 86°
2026-04-30 20:08 22.03692 114.63664 10991 ft 387 kts 86°
2026-04-30 20:08 22.03840 114.66634 11706 ft 386 kts 87°
2026-04-30 20:09 22.03990 114.69617 12325 ft 389 kts 87°
2026-04-30 20:09 22.04141 114.72551 12882 ft 393 kts 87°
2026-04-30 20:09 22.03681 114.78558 13985 ft 400 kts 100°
2026-04-30 20:10 22.02721 114.84588 15193 ft 404 kts 101°
2026-04-30 20:10 22.02221 114.87696 15770 ft 407 kts 101°
2026-04-30 20:10 22.01723 114.90797 16322 ft 411 kts 101°
2026-04-30 20:11 22.00740 114.96928 17398 ft 416 kts 101°
2026-04-30 20:11 22.00244 115.00040 17931 ft 419 kts 101°
2026-04-30 20:11 21.99751 115.03134 18394 ft 423 kts 101°
2026-04-30 20:12 21.98689 115.09769 19391 ft 431 kts 101°
2026-04-30 20:12 21.98147 115.13139 19913 ft 435 kts 101°
2026-04-30 20:12 21.97603 115.16501 20412 ft 438 kts 101°
2026-04-30 20:13 21.97059 115.19885 20874 ft 442 kts 101°
2026-04-30 20:13 21.96516 115.23275 21375 ft 445 kts 101°
2026-04-30 20:13 21.95968 115.26717 21816 ft 448 kts 101°
2026-04-30 20:13 21.95416 115.30190 22263 ft 451 kts 101°
2026-04-30 20:14 21.94869 115.33665 22676 ft 455 kts 101°
2026-04-30 20:14 21.94318 115.37201 23095 ft 458 kts 101°
2026-04-30 20:14 21.93772 115.40744 23461 ft 463 kts 101°
2026-04-30 20:14 21.93234 115.44273 23861 ft 466 kts 100°
2026-04-30 20:15 21.92687 115.47878 24263 ft 470 kts 100°
2026-04-30 20:15 21.92142 115.51459 24670 ft 472 kts 100°
2026-04-30 20:15 21.91585 115.55119 25040 ft 476 kts 100°
2026-04-30 20:15 21.91015 115.58876 25440 ft 479 kts 100°
2026-04-30 20:16 21.90458 115.62561 25838 ft 482 kts 100°
2026-04-30 20:16 21.89904 115.66252 26181 ft 486 kts 101°
2026-04-30 20:16 21.89359 115.69898 26518 ft 489 kts 101°
2026-04-30 20:16 21.88812 115.73573 26874 ft 492 kts 101°
2026-04-30 20:17 21.88249 115.77357 27192 ft 495 kts 101°
2026-04-30 20:17 21.87672 115.81238 27519 ft 499 kts 101°
2026-04-30 20:17 21.87091 115.85149 27816 ft 502 kts 101°
2026-04-30 20:17 21.86506 115.89077 28128 ft 505 kts 101°
2026-04-30 20:18 21.85914 115.93034 28449 ft 507 kts 100°
2026-04-30 20:18 21.85324 115.96976 28739 ft 510 kts 100°
2026-04-30 20:18 21.84722 116.00990 29046 ft 512 kts 100°
2026-04-30 20:18 21.84125 116.04956 29354 ft 514 kts 100°
2026-04-30 20:19 21.83528 116.08921 29668 ft 516 kts 101°
2026-04-30 20:19 21.83137 116.11534 29841 ft 517 kts 101°
2026-04-30 20:19 21.82357 116.16752 30246 ft 519 kts 100°
2026-04-30 20:19 21.81763 116.20719 30532 ft 521 kts 100°
2026-04-30 20:20 21.81170 116.24664 30794 ft 523 kts 100°
2026-04-30 20:20 21.80579 116.28595 31083 ft 524 kts 100°
2026-04-30 20:20 21.79987 116.32523 31354 ft 526 kts 100°
2026-04-30 20:20 21.79394 116.36478 31604 ft 528 kts 100°
2026-04-30 20:21 21.78806 116.40402 31859 ft 529 kts 100°
2026-04-30 20:21 21.78291 116.44376 32109 ft 531 kts 94°
2026-04-30 20:21 21.78388 116.48434 32298 ft 535 kts 82°
2026-04-30 20:21 21.79221 116.52396 32512 ft 536 kts 71°
2026-04-30 20:22 21.80511 116.56175 32793 ft 537 kts 68°
2026-04-30 20:22 21.81794 116.59938 33096 ft 537 kts 70°
2026-04-30 20:22 21.82908 116.63779 33521 ft 536 kts 73°
2026-04-30 20:22 21.83832 116.67620 33906 ft 535 kts 76°
2026-04-30 20:23 21.84633 116.71495 34233 ft 534 kts 78°
2026-04-30 20:23 21.85373 116.75429 34512 ft 535 kts 79°
2026-04-30 20:23 21.86081 116.79341 34828 ft 534 kts 79°
2026-04-30 20:23 21.86786 116.83266 35176 ft 532 kts 79°
2026-04-30 20:24 21.87490 116.87163 35499 ft 531 kts 79°
2026-04-30 20:24 21.88199 116.91051 35755 ft 531 kts 79°
2026-04-30 20:24 21.88913 116.94952 35977 ft 531 kts 78°
2026-04-30 20:24 21.89650 116.98962 36206 ft 532 kts 78°
2026-04-30 20:25 21.91091 117.06807 36667 ft 531 kts 78°
2026-04-30 20:25 21.91806 117.10702 36940 ft 530 kts 78°
2026-04-30 20:26 21.93229 117.18476 37299 ft 532 kts 78°
2026-04-30 20:26 21.94649 117.26265 37758 ft 530 kts 79°
2026-04-30 20:26 21.95355 117.30145 37908 ft 531 kts 79°
2026-04-30 20:27 21.96769 117.37935 38158 ft 533 kts 79°
2026-04-30 20:27 21.98191 117.45775 38507 ft 533 kts 78°
2026-04-30 20:28 22.00742 117.53188 38748 ft 532 kts 60°
2026-04-30 20:28 22.04541 117.60017 38981 ft 532 kts 55°
2026-04-30 20:30 22.14440 117.76806 38973 ft 529 kts 56°
2026-04-30 20:31 22.26106 117.97135 38967 ft 529 kts 57°
2026-04-30 20:32 22.35773 118.14027 38967 ft 530 kts 56°
2026-04-30 20:33 22.41546 118.24143 38966 ft 529 kts 56°
2026-04-30 20:34 22.47339 118.34311 38972 ft 530 kts 56°
2026-04-30 20:35 22.53096 118.44436 38976 ft 528 kts 56°
2026-04-30 20:35 22.58845 118.54566 38978 ft 528 kts 56°
2026-04-30 20:36 22.62676 118.61330 38977 ft 527 kts 56°
2026-04-30 20:37 22.68434 118.71509 38983 ft 528 kts 57°
2026-04-30 20:37 22.72275 118.78311 38986 ft 527 kts 56°
2026-04-30 20:38 22.76113 118.85117 38993 ft 526 kts 57°
2026-04-30 20:38 22.79919 118.91875 38990 ft 528 kts 57°
2026-04-30 20:39 22.85640 119.02048 38991 ft 526 kts 56°
2026-04-30 20:40 22.91366 119.12250 38991 ft 530 kts 56°
2026-04-30 20:40 22.95176 119.19052 38994 ft 529 kts 56°
2026-04-30 20:41 23.00867 119.29228 38993 ft 527 kts 56°
2026-04-30 20:41 23.04674 119.36042 38994 ft 529 kts 56°
2026-04-30 20:42 23.08485 119.42875 38990 ft 530 kts 56°
2026-04-30 20:43 23.14209 119.53157 38993 ft 530 kts 56°
2026-04-30 20:43 23.18025 119.60025 38991 ft 531 kts 56°
2026-04-30 20:44 23.23737 119.70319 38992 ft 530 kts 57°
2026-04-30 20:45 23.31327 119.84032 38993 ft 532 kts 56°
2026-04-30 20:45 23.35198 119.90906 38987 ft 530 kts 51°
2026-04-30 20:46 23.42668 119.99608 38988 ft 524 kts 39°
2026-04-30 20:46 23.45318 120.02274 38992 ft 524 kts 39°
2026-04-30 20:47 23.53298 120.10381 38992 ft 525 kts 39°
2026-04-30 20:48 23.61212 120.18591 38996 ft 521 kts 40°
2026-04-30 20:48 23.66464 120.24061 38999 ft 522 kts 39°
2026-04-30 20:49 23.71724 120.29541 39000 ft 523 kts 40°
2026-04-30 20:50 23.79570 120.37728 39006 ft 522 kts 40°
2026-04-30 20:50 23.84826 120.43220 39004 ft 522 kts 40°
2026-04-30 20:51 23.90043 120.48679 39003 ft 523 kts 40°
2026-04-30 20:51 23.97890 120.56902 39011 ft 521 kts 39°
2026-04-30 20:52 24.03140 120.62410 39014 ft 524 kts 39°
2026-04-30 20:53 24.10987 120.70657 39018 ft 521 kts 40°
2026-04-30 20:53 24.16227 120.76171 39025 ft 523 kts 40°
2026-04-30 20:54 24.24070 120.84438 39056 ft 521 kts 40°
2026-04-30 20:55 24.31896 120.92702 39102 ft 521 kts 40°
2026-04-30 20:55 24.37109 120.98216 39137 ft 519 kts 40°
2026-04-30 20:56 24.44490 121.06893 39183 ft 525 kts 47°
2026-04-30 20:57 24.51215 121.16333 39214 ft 524 kts 48°
2026-04-30 20:57 24.55749 121.22659 39210 ft 526 kts 48°
2026-04-30 20:58 24.62553 121.32079 39144 ft 525 kts 47°
2026-04-30 20:58 24.67101 121.38372 39099 ft 526 kts 47°
2026-04-30 20:59 24.73880 121.47775 39067 ft 524 kts 47°
2026-04-30 21:00 24.82943 121.60373 39053 ft 526 kts 47°
2026-04-30 21:01 24.89750 121.69801 39059 ft 526 kts 46°
2026-04-30 21:02 24.96938 121.78925 39064 ft 523 kts 44°
2026-04-30 21:02 25.01712 121.84913 39065 ft 523 kts 44°
2026-04-30 21:03 25.06490 121.90949 39066 ft 526 kts 44°
2026-04-30 21:03 25.11299 121.97051 39067 ft 526 kts 45°
2026-04-30 21:04 25.16087 122.03135 39064 ft 525 kts 45°
2026-04-30 21:04 25.23264 122.12270 39068 ft 526 kts 44°
2026-04-30 21:05 25.28043 122.18362 39065 ft 524 kts 44°
2026-04-30 21:05 25.32820 122.24455 39068 ft 527 kts 44°
2026-04-30 21:06 25.37607 122.30573 39066 ft 526 kts 44°
2026-04-30 21:06 25.42358 122.36654 39065 ft 526 kts 44°
2026-04-30 21:07 25.47125 122.42761 39062 ft 525 kts 44°
2026-04-30 21:07 25.51904 122.48894 39061 ft 525 kts 44°
2026-04-30 21:08 25.56658 122.54999 39060 ft 526 kts 44°
2026-04-30 21:08 25.61433 122.61141 39060 ft 527 kts 44°
2026-04-30 21:09 25.66202 122.67284 39058 ft 526 kts 45°
2026-04-30 21:09 25.70999 122.73471 39061 ft 528 kts 45°
2026-04-30 21:10 25.75770 122.79633 39057 ft 529 kts 45°
2026-04-30 21:10 25.80552 122.85820 39058 ft 527 kts 45°
2026-04-30 21:11 25.85300 122.91969 39060 ft 527 kts 45°
2026-04-30 21:11 25.90100 122.98192 39060 ft 530 kts 45°
2026-04-30 21:12 25.94878 123.04397 39059 ft 529 kts 45°
2026-04-30 21:12 25.99639 123.10590 39061 ft 530 kts 45°
2026-04-30 21:13 26.04444 123.16844 39062 ft 531 kts 45°
2026-04-30 21:13 26.09204 123.23053 39057 ft 529 kts 45°
2026-04-30 21:14 26.14013 123.29336 39060 ft 527 kts 44°
2026-04-30 21:14 26.18802 123.35595 39070 ft 530 kts 44°
2026-04-30 21:15 26.23597 123.41873 39064 ft 529 kts 44°
2026-04-30 21:15 26.28336 123.48088 39074 ft 528 kts 44°
2026-04-30 21:16 26.33100 123.54340 39077 ft 530 kts 44°
2026-04-30 21:16 26.37828 123.60558 39071 ft 529 kts 44°
2026-04-30 21:17 26.42591 123.66831 39071 ft 527 kts 44°
2026-04-30 21:17 26.47362 123.73121 39079 ft 530 kts 44°
2026-04-30 21:18 26.52144 123.79433 39071 ft 531 kts 44°
2026-04-30 21:18 26.56887 123.85707 39074 ft 530 kts 44°
2026-04-30 21:19 26.61623 123.91977 39078 ft 531 kts 44°
2026-04-30 21:19 26.66392 123.98298 39081 ft 532 kts 44°
2026-04-30 21:20 26.71159 124.04631 39075 ft 529 kts 44°
2026-04-30 21:20 26.75883 124.10915 39078 ft 530 kts 44°
2026-04-30 21:21 26.80682 124.17303 39080 ft 530 kts 44°
2026-04-30 21:22 26.87809 124.26810 39080 ft 531 kts 44°
2026-04-30 21:23 26.97303 124.39507 39071 ft 533 kts 44°
2026-04-30 21:23 27.04431 124.49068 39070 ft 532 kts 44°
2026-04-30 21:24 27.08369 124.54355 39071 ft 534 kts 44°
2026-04-30 21:24 27.13984 124.61908 39072 ft 532 kts 44°
2026-04-30 21:25 27.21111 124.71511 39071 ft 537 kts 45°
2026-04-30 21:26 27.28324 124.81252 39069 ft 540 kts 45°
2026-04-30 21:27 27.35523 124.91000 39063 ft 540 kts 45°
2026-04-30 21:27 27.40301 124.97479 39064 ft 542 kts 45°
2026-04-30 21:28 27.47493 125.07254 39066 ft 538 kts 44°
2026-04-30 21:29 27.54528 125.16830 39062 ft 544 kts 45°
2026-04-30 21:30 27.66561 125.33270 39064 ft 545 kts 45°
2026-04-30 21:31 27.78579 125.49746 39059 ft 547 kts 44°
2026-04-30 21:32 27.85860 125.59758 39063 ft 550 kts 44°
2026-04-30 21:32 27.90696 125.66425 39058 ft 550 kts 45°
2026-04-30 21:33 27.98016 125.76531 39057 ft 553 kts 45°
2026-04-30 21:34 28.02908 125.83301 39063 ft 552 kts 44°
2026-04-30 21:34 28.10214 125.93425 39062 ft 555 kts 45°
2026-04-30 21:35 28.15092 126.00203 39060 ft 554 kts 45°
2026-04-30 21:35 28.19169 126.05875 39060 ft 556 kts 45°
2026-04-30 21:36 28.24849 126.13785 39058 ft 559 kts 44°
2026-04-30 21:37 28.33823 126.26323 39051 ft 558 kts 45°
2026-04-30 21:37 28.39536 126.34317 39048 ft 561 kts 44°
2026-04-30 21:38 28.44440 126.41196 39049 ft 562 kts 44°
2026-04-30 21:38 28.49352 126.48099 39046 ft 561 kts 44°
2026-04-30 21:39 28.54261 126.55003 39043 ft 564 kts 44°
2026-04-30 21:39 28.59196 126.61957 39043 ft 566 kts 44°
2026-04-30 21:40 28.64132 126.68926 39039 ft 567 kts 45°
2026-04-30 21:40 28.68254 126.74752 39041 ft 571 kts 44°
2026-04-30 21:41 28.73229 126.81795 39041 ft 573 kts 45°
2026-04-30 21:41 28.79047 126.90056 39026 ft 571 kts 44°
2026-04-30 21:42 28.83162 126.95905 39024 ft 573 kts 44°
2026-04-30 21:42 28.88156 127.03011 39017 ft 572 kts 45°
2026-04-30 21:43 28.93108 127.10068 39019 ft 575 kts 44°
2026-04-30 21:43 28.98118 127.17223 39023 ft 576 kts 44°
2026-04-30 21:44 29.03125 127.24379 39025 ft 582 kts 45°
2026-04-30 21:44 29.08151 127.31589 39027 ft 580 kts 44°
2026-04-30 21:45 29.13182 127.38820 39002 ft 576 kts 44°
2026-04-30 21:45 29.18229 127.46069 39005 ft 583 kts 44°
2026-04-30 21:46 29.23323 127.53406 38999 ft 583 kts 44°
2026-04-30 21:46 29.28295 127.60594 39000 ft 575 kts 44°
2026-04-30 21:47 29.33308 127.67837 38996 ft 580 kts 45°
2026-04-30 21:47 29.38398 127.75194 38998 ft 586 kts 45°
2026-04-30 21:48 29.43478 127.82571 39004 ft 583 kts 45°
2026-04-30 21:48 29.48486 127.89860 38998 ft 582 kts 45°
2026-04-30 21:49 29.53492 127.97144 38999 ft 584 kts 45°
2026-04-30 21:49 29.58507 128.04457 38999 ft 584 kts 45°
2026-04-30 21:50 29.63529 128.11793 38992 ft 587 kts 45°
2026-04-30 21:50 29.68549 128.19150 38979 ft 583 kts 45°
2026-04-30 21:51 29.73532 128.26460 38984 ft 584 kts 45°
2026-04-30 21:51 29.78560 128.33838 38981 ft 588 kts 45°
2026-04-30 21:52 29.83586 128.41238 38991 ft 586 kts 46°
2026-04-30 21:52 29.88596 128.48622 38997 ft 590 kts 46°
2026-04-30 21:53 29.93667 128.56119 38979 ft 591 kts 46°
2026-04-30 21:53 29.98706 128.63582 38970 ft 589 kts 46°
2026-04-30 21:54 30.03765 128.71077 38981 ft 593 kts 46°
2026-04-30 21:54 30.08898 128.78700 38962 ft 597 kts 47°
2026-04-30 21:55 30.14047 128.86369 38952 ft 593 kts 47°
2026-04-30 21:55 30.19098 128.93907 38972 ft 591 kts 46°
2026-04-30 21:56 30.24165 129.01472 38973 ft 592 kts 47°
2026-04-30 21:56 30.29210 129.09023 38942 ft 592 kts 47°
2026-04-30 21:57 30.34227 129.16544 38941 ft 596 kts 47°
2026-04-30 21:57 30.39266 129.24121 38959 ft 595 kts 47°
2026-04-30 21:58 30.44299 129.31700 38945 ft 591 kts 48°
2026-04-30 21:58 30.49302 129.39244 38955 ft 594 kts 47°
2026-04-30 21:59 30.54337 129.46851 38933 ft 595 kts 48°
2026-04-30 22:00 30.61873 129.58266 38949 ft 595 kts 48°
2026-04-30 22:00 30.69414 129.69720 38939 ft 597 kts 49°
2026-04-30 22:01 30.74460 129.77406 38940 ft 595 kts 50°
2026-04-30 22:01 30.79480 129.85068 38932 ft 598 kts 49°
2026-04-30 22:02 30.84399 129.92859 38943 ft 600 kts 54°
2026-04-30 22:02 30.88808 130.01030 38933 ft 599 kts 57°
2026-04-30 22:03 30.93096 130.09328 38922 ft 603 kts 57°
2026-04-30 22:03 30.97457 130.17670 38939 ft 602 kts 57°
2026-04-30 22:04 31.01808 130.25917 38929 ft 598 kts 56°
2026-04-30 22:05 31.08349 130.38316 38932 ft 601 kts 57°
2026-04-30 22:05 31.12714 130.46628 38913 ft 598 kts 57°
2026-04-30 22:06 31.17026 130.54858 38901 ft 597 kts 57°
2026-04-30 22:06 31.23511 130.67265 38917 ft 600 kts 58°
2026-04-30 22:07 31.27828 130.75546 38909 ft 597 kts 58°
2026-04-30 22:07 31.32147 130.83855 38889 ft 600 kts 58°
2026-04-30 22:08 31.36445 130.92137 38884 ft 598 kts 58°
2026-04-30 22:08 31.40764 131.00473 38874 ft 598 kts 59°
2026-04-30 22:09 31.45048 131.08762 38863 ft 599 kts 59°
2026-04-30 22:09 31.49340 131.17090 38878 ft 599 kts 59°
2026-04-30 22:10 31.53652 131.25470 38869 ft 600 kts 59°
2026-04-30 22:10 31.57927 131.33798 38874 ft 600 kts 59°
2026-04-30 22:11 31.64358 131.46355 38846 ft 600 kts 59°
2026-04-30 22:12 31.68629 131.54724 38839 ft 600 kts 60°
2026-04-30 22:12 31.72930 131.63165 38852 ft 603 kts 60°
2026-04-30 22:13 31.77218 131.71600 38845 ft 602 kts 60°
2026-04-30 22:13 31.81543 131.80127 38862 ft 602 kts 61°
2026-04-30 22:14 31.85834 131.88611 38818 ft 605 kts 60°
2026-04-30 22:14 31.90144 131.97145 38813 ft 605 kts 60°
2026-04-30 22:15 31.94417 132.05629 38816 ft 606 kts 60°
2026-04-30 22:15 31.98706 132.14159 38787 ft 607 kts 61°
2026-04-30 22:16 32.02957 132.22630 38784 ft 601 kts 62°
2026-04-30 22:17 32.11432 132.39714 38788 ft 605 kts 63°
2026-04-30 22:17 32.17108 132.52959 38790 ft 599 kts 67°
2026-04-30 22:18 32.22652 132.66292 38780 ft 604 kts 67°
2026-04-30 22:19 32.28255 132.79588 38770 ft 598 kts 67°
2026-04-30 22:20 32.33820 132.92851 38769 ft 599 kts 67°
2026-04-30 22:20 32.39326 133.06027 38764 ft 598 kts 67°
2026-04-30 22:21 32.42972 133.14783 38751 ft 596 kts 67°
2026-04-30 22:21 32.46624 133.23575 38743 ft 596 kts 67°
2026-04-30 22:22 32.50286 133.32417 38758 ft 598 kts 68°
2026-04-30 22:22 32.53923 133.41208 38751 ft 597 kts 68°
2026-04-30 22:23 32.57551 133.50003 38733 ft 595 kts 67°
2026-04-30 22:23 32.61176 133.58821 38753 ft 600 kts 67°
2026-04-30 22:24 32.64820 133.67694 38717 ft 593 kts 68°
2026-04-30 22:24 32.68426 133.76498 38721 ft 592 kts 68°